This is the latest recevied weather packets stored in our database for station/object SP4MGL-10. If no packets are shown the sender has not sent any weather packets the latest 10 day(s).
| Time | Temp. | Humidity | Pressure | Rain* | Wind** | Luminosity | Snow |
|---|---|---|---|---|---|---|---|
| 1788131912 | 17.78° C | 85% | 1014.7 hPa | - | - | - | - |
| 1788131011 | 17.78° C | 84% | 1014.7 hPa | - | - | - | - |
| 1788130111 | 17.78° C | 83% | 1014.7 hPa | - | - | - | - |
| 1788129210 | 18.33° C | 82% | 1014.8 hPa | - | - | - | - |
| 1788128310 | 18.33° C | 81% | 1014.8 hPa | - | - | - | - |
| 1788127409 | 18.89° C | 80% | 1014.7 hPa | - | - | - | - |
| 1788126514 | 18.89° C | 78% | 1014.3 hPa | - | - | - | - |
| 1788125608 | 19.44° C | 77% | 1014.6 hPa | - | - | - | - |
| 1788124707 | 20° C | 74% | 1014.5 hPa | - | - | - | - |
| 1788123806 | 20° C | 74% | 1014.3 hPa | - | - | - | - |
| 1788122906 | 20° C | 74% | 1014.3 hPa | - | - | - | - |
| 1788122005 | 20° C | 73% | 1014.2 hPa | - | - | - | - |
| 1788121105 | 20° C | 73% | 1014.2 hPa | - | - | - | - |
| 1788120204 | 20° C | 73% | 1014.2 hPa | - | - | - | - |
| 1788119303 | 20° C | 73% | 1014.2 hPa | - | - | - | - |
| 1788118403 | 20° C | 72% | 1014.3 hPa | - | - | - | - |
| 1788117502 | 20.56° C | 71% | 1014.2 hPa | - | - | - | - |
| 1788116602 | 20° C | 71% | 1014.2 hPa | - | - | - | - |
| 1788115701 | 20.56° C | 70% | 1014.1 hPa | - | - | - | - |
| 1788114800 | 20.56° C | 69% | 1014.1 hPa | - | - | - | - |
| 1788113900 | 21.11° C | 67% | 1014 hPa | - | - | - | - |
| 1788113000 | 21.67° C | 65% | 1013.7 hPa | - | - | - | - |
| 1788112098 | 22.22° C | 63% | 1013.6 hPa | - | - | - | - |
| 1788111198 | 23.33° C | 59% | 1013.4 hPa | - | - | - | - |
| 1788110297 | 24.44° C | 55% | 1013.4 hPa | - | - | - | - |
* Rain since midnight (hover to see other rain measurements)
** Current wind speed in m/s (hover to see current wind gust speed)